Theta_e
308 308 308 308 308 308 308 308 308 308 308 308 308 308 308 308 308 308 308 309 309 309 310 310 312 314 314 315 315 314 314 314 316 319 320 319 317 317 316 315 313 313 312 311 316 319 316 316 317 316 320 321 322 325 324 323 325 325 326 325 323 324 323 324 324 321 322 322 319 317 317 317 317 317 315 315 315 316 316 317 317 316 316 313 312 312 310 309
308 308 308 308 308 308 308 308 309 309 309 309 308 308 308 308 308 308 308 308 308 308 308 309 311 312 314 315 315 315 314 314 317 320 319 319 319 317 315 313 312 313 312 315 318 318 317 318 317 317 319 322 324 325 325 324 324 325 327 325 324 325 324 322 321 320 320 320 319 318 318 317 317 317 315 315 316 316 315 316 316 316 316 312 311 310 309 307
309 309 309 309 309 309 309 309 309 309 309 309 309 308 308 308 308 308 308 308 308 308 308 309 309 311 314 315 315 314 314 317 319 320 319 320 320 318 316 312 311 312 312 316 320 317 317 318 317 318 318 320 324 324 325 325 322 323 325 324 326 324 322 321 320 319 318 318 318 318 317 317 317 317 315 315 316 316 316 316 316 316 316 314 311 309 308 307
309 309 310 309 309 309 309 309 309 309 309 309 309 309 308 308 307 307 307 307 308 307 308 308 308 311 313 315 315 314 318 324 323 320 320 321 320 318 315 312 311 312 312 315 317 316 316 317 317 318 318 319 321 324 325 323 323 323 322 323 324 322 322 321 319 318 318 317 317 317 318 317 317 317 315 315 316 317 316 316 317 316 316 315 312 310 308 307
310 310 310 310 310 310 310 309 309 309 309 309 309 309 309 308 308 307 307 307 307 307 307 308 308 309 312 315 315 316 324 326 323 321 319 320 319 316 313 311 310 311 312 314 315 315 316 317 317 318 319 319 321 323 323 322 322 322 322 322 322 320 321 319 317 318 317 316 316 316 317 317 317 317 316 316 316 317 317 317 317 317 317 316 312 310 308 307
310 310 310 310 310 310 309 309 309 309 309 309 309 309 309 308 308 307 307 307 307 307 307 308 308 308 312 315 314 319 326 322 322 322 316 317 317 314 312 310 311 310 311 313 314 315 316 317 318 319 319 319 321 322 322 321 321 321 320 320 320 320 319 318 317 318 316 315 315 315 316 316 317 317 316 316 315 316 317 318 317 317 317 315 312 310 310 309
311 311 310 310 310 310 310 309 310 309 309 309 309 309 308 308 308 308 308 307 307 307 307 307 307 309 311 315 318 322 325 320 322 321 314 315 314 312 311 311 312 310 311 314 314 315 317 318 318 318 319 319 320 320 321 320 319 319 319 318 319 319 319 318 317 316 315 314 315 315 315 316 316 316 316 316 315 315 316 317 317 316 315 314 312 311 311 310
312 311 311 311 311 310 310 310 310 309 309 309 309 309 308 308 308 308 308 308 308 307 308 308 308 309 310 318 325 324 322 321 321 318 314 314 311 311 311 312 312 310 312 314 314 315 317 318 318 319 320 320 320 319 320 319 318 318 318 318 319 318 318 317 317 316 314 314 315 315 314 315 315 315 315 315 316 316 317 316 317 316 315 316 313 311 311 311
312 312 312 312 311 311 311 310 310 310 310 309 309 309 308 309 308 308 308 308 308 307 308 308 309 311 311 318 326 322 321 323 319 317 316 314 313 312 312 313 313 311 312 314 314 315 317 318 319 320 320 319 319 319 319 319 318 318 318 318 318 318 317 317 317 316 314 314 314 315 314 314 314 315 315 315 315 316 316 317 317 316 316 316 314 312 312 312
313 313 312 312 312 311 311 311 310 310 310 310 309 309 309 308 308 308 308 308 308 308 308 309 311 312 313 318 321 320 322 321 317 316 316 315 315 313 313 315 315 312 313 315 314 314 316 319 320 321 320 318 317 319 319 318 318 316 317 316 316 316 316 317 317 316 315 315 315 315 314 314 315 315 315 315 315 316 316 316 316 316 315 315 315 314 312 312
313 313 313 313 312 312 312 311 311 311 310 310 310 310 310 309 309 309 308 308 308 308 308 310 311 311 317 321 319 320 321 317 315 314 314 314 313 313 313 314 313 313 315 315 314 315 316 318 319 319 319 317 317 319 319 317 316 316 316 315 315 315 316 316 316 316 316 315 315 314 314 314 315 315 315 315 316 317 316 316 316 316 316 315 315 315 314 313
314 314 313 313 313 312 312 311 311 311 311 311 310 310 310 310 310 309 309 309 308 308 309 312 312 312 319 321 318 319 318 316 315 314 314 313 312 313 314 313 311 313 316 316 316 317 316 317 319 318 318 318 317 318 317 315 315 315 315 314 315 316 316 316 316 316 316 316 315 314 314 314 314 315 315 314 315 316 317 317 317 317 316 316 315 314 315 313
314 314 313 313 313 312 312 311 311 311 311 311 311 311 311 310 310 310 309 309 308 309 310 312 312 313 319 321 319 319 317 316 315 313 313 312 312 312 312 312 310 311 313 315 319 318 314 316 319 318 318 318 317 317 315 314 315 315 315 315 316 316 316 317 317 316 316 315 315 314 314 315 315 315 315 315 316 315 316 316 317 317 317 316 315 314 314 313
314 314 313 313 312 312 311 311 311 310 310 310 310 311 311 311 311 310 310 309 309 310 312 313 313 316 319 318 318 319 317 316 314 314 313 311 313 312 311 311 311 311 311 313 318 316 312 315 318 318 317 317 316 315 315 316 316 315 316 317 318 317 317 318 318 318 316 314 314 314 314 315 315 316 315 316 316 315 315 315 316 316 316 315 315 314 313 313
314 314 313 313 312 312 312 311 310 310 309 309 309 310 310 311 311 311 311 309 310 311 312 313 313 318 320 318 318 317 314 315 313 314 314 313 315 315 313 313 312 312 312 313 314 313 313 315 317 317 315 315 316 316 316 317 317 316 317 318 320 318 318 319 318 317 316 313 313 315 315 315 315 316 317 317 317 316 315 315 315 315 315 315 314 313 313 313
314 314 313 313 312 312 312 311 310 310 309 309 308 308 309 310 310 311 311 310 311 311 313 317 315 317 318 316 318 317 314 315 314 315 315 313 316 317 315 314 313 313 313 313 312 312 314 316 317 317 316 315 316 317 318 319 319 319 318 318 320 319 318 319 317 315 316 314 312 314 315 315 315 317 319 317 316 315 315 315 315 315 314 315 314 313 313 313
314 313 313 313 312 312 312 311 311 310 310 309 308 308 308 309 310 311 310 310 312 312 314 319 318 315 315 315 316 317 317 316 316 317 315 312 315 317 316 315 315 314 313 313 313 314 314 316 317 317 317 316 316 318 320 321 320 320 320 318 319 320 318 318 317 315 315 315 313 313 314 314 315 317 317 316 316 315 315 315 316 315 315 315 316 315 314 313
314 314 313 313 313 312 312 311 311 311 310 309 309 308 307 309 310 310 312 312 313 315 315 317 318 316 316 316 316 317 318 318 317 316 315 312 313 315 315 314 315 315 314 314 315 315 315 316 317 318 318 317 316 317 320 321 318 317 319 317 317 318 317 318 317 316 315 315 314 314 314 313 314 315 315 316 316 315 315 316 316 316 315 315 315 315 315 313
315 314 313 313 313 313 312 312 312 312 311 310 309 308 310 314 314 313 317 317 315 317 319 317 317 317 317 318 318 318 318 317 316 315 314 312 311 314 315 314 315 315 315 316 316 315 316 318 320 321 320 317 316 317 318 318 317 317 317 316 316 316 316 317 317 316 315 315 315 314 314 314 314 314 315 315 316 316 316 315 315 315 315 315 315 315 316 315
315 314 314 314 313 313 313 313 313 313 311 309 309 310 314 320 319 315 317 317 315 315 317 317 317 317 317 319 320 318 316 315 314 315 314 312 312 313 314 313 316 317 316 318 318 316 318 320 321 322 319 317 317 317 317 318 317 317 318 318 318 317 316 316 317 317 315 315 316 315 315 315 315 315 315 316 316 316 316 316 316 315 315 315 315 316 316 316
315 314 314 314 313 313 313 313 313 312 310 309 312 315 314 317 320 317 314 314 316 316 316 316 316 316 316 319 317 315 316 316 315 316 314 313 313 313 313 312 316 318 316 317 319 318 319 320 320 319 317 317 317 317 318 318 318 318 319 319 318 318 316 316 317 316 315 316 316 316 316 315 315 315 315 316 316 316 316 316 316 315 315 315 315 317 316 317
315 315 314 314 314 313 314 314 312 310 310 312 315 318 315 313 314 314 311 312 315 316 316 317 315 315 314 315 316 315 316 315 315 318 315 313 314 313 313 313 315 317 316 316 319 320 321 320 319 318 317 317 317 318 319 319 319 320 320 320 318 317 317 317 318 316 313 315 317 316 316 315 315 316 315 316 316 316 316 316 316 316 315 315 315 316 317 320
316 316 314 314 314 313 314 313 311 312 314 314 314 316 313 310 308 309 311 313 312 313 315 316 315 315 313 313 315 314 314 312 313 318 316 313 314 314 314 314 314 316 317 316 317 319 321 320 318 318 317 317 316 317 319 318 319 320 319 318 317 317 318 318 317 315 312 314 316 316 316 315 315 315 315 315 315 315 316 316 317 316 316 316 316 317 319 323
317 316 315 314 314 314 314 313 313 315 314 313 313 313 310 309 308 309 314 316 312 312 314 314 315 315 314 314 314 312 313 312 311 316 315 313 314 314 314 314 314 315 316 315 316 319 319 318 320 320 318 319 318 318 321 319 317 319 321 319 316 317 318 317 319 318 315 314 315 316 316 315 316 316 316 315 316 316 315 316 316 317 317 317 318 319 322 324
317 316 316 315 314 314 313 314 316 314 311 312 313 310 307 308 308 309 314 315 313 315 317 317 318 317 314 314 314 313 312 312 313 317 314 313 314 314 313 314 314 315 315 315 316 318 318 319 322 322 321 323 322 320 323 323 318 317 322 321 318 318 318 319 322 323 323 321 317 316 318 317 319 319 318 318 318 318 316 316 316 315 316 317 318 319 322 324
317 317 317 316 315 314 314 316 316 313 312 313 312 309 306 306 307 309 313 315 314 316 317 316 317 316 315 314 313 313 313 312 314 316 314 313 314 314 313 313 314 314 315 315 315 317 319 319 321 322 322 324 325 322 322 325 318 316 324 328 322 320 323 325 324 324 328 326 319 318 320 319 318 318 318 319 320 320 317 317 317 316 316 317 317 318 321 323
317 317 317 317 315 314 315 316 315 313 314 314 312 309 306 305 305 308 314 315 316 318 317 315 315 314 315 314 313 312 312 312 313 313 313 313 313 314 314 313 314 314 314 317 317 318 321 320 320 323 323 325 325 321 320 321 319 320 327 330 323 321 325 326 325 326 327 322 319 320 321 320 318 316 318 318 319 319 317 316 317 316 315 316 315 316 322 323
318 318 318 317 316 315 314 314 314 314 314 313 311 309 307 305 306 311 316 316 318 321 318 314 312 312 313 313 314 313 310 311 315 313 309 310 311 314 314 313 313 314 314 317 317 319 324 324 324 324 323 323 321 320 323 323 320 322 324 324 323 322 322 322 322 324 323 319 320 323 321 321 319 316 318 318 316 317 316 315 316 315 314 315 314 314 323 323
319 318 317 317 316 315 314 313 313 314 313 312 310 309 307 306 308 313 315 315 319 319 316 314 313 313 313 313 313 313 310 310 313 311 308 309 311 311 312 312 312 313 314 314 315 319 323 319 320 323 322 321 320 321 327 328 322 322 322 321 321 321 319 319 320 320 320 318 320 323 321 320 318 315 317 318 316 316 316 315 315 314 314 316 315 314 321 323
321 319 317 317 316 315 315 314 314 314 312 310 309 308 308 309 311 315 316 316 317 316 313 312 314 315 313 313 313 312 311 310 309 309 309 311 311 310 310 312 312 314 317 317 317 318 316 311 313 320 320 318 320 318 318 322 321 319 320 319 320 321 318 318 318 317 319 319 319 321 320 318 318 317 318 318 316 316 317 315 315 315 314 317 318 316 321 322
323 320 318 317 317 316 315 316 315 313 310 310 309 308 310 313 313 315 317 317 316 317 315 313 314 315 313 314 317 313 312 312 309 310 311 310 311 311 310 313 314 315 317 319 318 317 316 313 314 320 320 316 320 319 314 314 317 319 319 316 320 323 320 318 317 317 320 320 318 321 320 318 319 319 317 318 317 316 316 315 315 316 315 318 320 320 322 321
324 322 320 317 317 316 316 316 315 312 310 309 310 309 312 316 314 314 315 315 317 318 318 317 317 316 315 316 319 316 313 314 311 311 312 312 312 312 311 314 316 317 319 318 317 319 319 317 315 319 319 316 320 321 314 312 315 320 320 317 320 322 321 322 322 323 323 320 320 322 321 319 318 316 316 317 317 316 316 315 315 317 318 319 322 323 323 321
324 323 321 318 317 316 316 316 314 313 311 309 311 312 314 315 315 316 314 315 319 320 320 321 318 318 319 318 320 319 318 318 313 310 314 315 314 314 313 315 316 320 322 320 319 323 325 321 318 318 317 316 317 317 317 318 316 317 319 320 323 323 321 322 324 326 325 321 319 320 322 323 318 316 318 316 315 316 316 316 318 320 319 320 324 326 325 322
323 323 321 319 318 317 316 315 315 314 310 310 314 314 313 314 316 319 318 316 318 320 321 323 320 319 321 320 321 322 321 321 316 312 315 318 316 316 316 315 316 319 321 320 319 323 324 322 319 319 319 317 316 314 317 322 317 313 316 319 322 323 320 320 323 323 322 323 320 317 323 325 317 318 321 317 315 316 316 317 320 324 323 325 329 328 325 322
321 321 320 319 318 317 317 315 315 313 309 311 316 314 313 314 314 317 318 316 317 319 319 320 321 321 322 322 323 323 321 322 319 315 316 318 317 318 317 315 315 316 319 319 320 320 320 320 320 320 319 316 315 315 317 322 321 315 316 317 319 321 318 318 321 320 319 323 321 317 323 322 314 316 319 316 317 316 315 316 318 321 323 328 330 328 325 322
320 320 319 318 317 317 317 316 315 312 311 314 315 313 313 313 314 316 316 315 316 319 318 318 322 324 322 322 324 324 321 321 321 319 318 317 316 317 317 317 316 315 317 319 321 320 318 321 322 318 316 315 314 317 318 322 322 317 317 320 319 320 320 319 322 320 318 320 319 317 320 318 313 316 316 315 316 316 315 315 316 319 320 324 327 326 325 322
318 318 318 318 318 318 317 317 315 312 312 316 315 314 315 314 313 314 314 314 314 316 317 317 321 323 321 320 324 325 322 320 321 320 320 320 318 317 317 318 318 315 316 316 319 321 317 319 322 318 316 314 311 313 316 317 318 319 321 320 318 321 321 319 320 322 321 321 319 317 318 317 315 318 318 316 315 314 315 315 315 316 317 320 323 324 323 321
317 317 318 318 318 318 317 316 314 311 312 315 315 316 317 315 313 311 312 313 312 314 316 316 318 322 320 318 321 325 321 319 321 320 320 320 320 319 317 318 319 316 315 315 318 323 320 317 320 318 316 313 309 312 316 315 315 319 319 317 317 321 323 320 319 320 321 319 318 317 318 316 315 315 316 315 315 314 314 314 314 314 315 318 320 321 321 321
316 317 319 319 318 318 317 315 312 311 312 314 314 317 317 316 315 313 313 312 312 313 313 313 315 317 318 316 317 323 321 319 321 320 319 318 319 322 320 318 321 318 315 315 316 319 319 317 319 316 313 313 311 313 318 318 315 314 313 313 315 317 320 322 320 318 319 317 316 317 317 315 315 314 314 316 316 314 313 314 315 315 315 317 318 319 321 322
316 318 319 319 318 319 317 313 311 312 313 314 314 315 316 316 314 313 313 313 313 312 311 313 313 312 314 315 314 318 320 320 321 318 317 317 317 321 320 317 321 321 316 316 316 316 319 318 317 315 311 313 314 313 316 317 316 314 313 315 314 313 315 318 318 317 318 317 316 316 316 315 314 315 317 317 315 314 315 316 317 317 316 315 316 318 320 322
316 319 319 317 317 317 315 312 312 313 313 313 314 314 314 315 314 314 314 314 314 313 311 312 313 311 312 313 312 313 316 320 321 319 318 317 315 318 319 318 321 322 319 319 318 317 319 318 317 316 315 315 315 314 313 315 316 315 314 314 314 314 314 315 317 317 316 316 316 316 316 315 314 316 318 318 315 315 317 318 317 318 316 315 316 318 319 321
315 318 318 316 316 315 313 313 314 314 313 313 314 314 314 314 315 315 315 314 314 313 312 311 311 312 312 312 312 312 313 315 317 318 318 317 315 316 318 319 321 321 320 321 319 318 320 319 317 317 316 316 317 317 315 315 315 316 315 315 314 314 314 315 316 315 316 316 316 316 317 315 315 317 316 315 315 316 318 319 318 318 317 316 318 320 320 320
315 317 315 314 315 314 314 316 314 313 313 313 313 314 314 315 315 316 315 315 315 315 315 314 312 312 312 312 312 312 312 313 312 313 315 314 314 315 316 319 320 318 316 318 317 317 318 318 316 315 316 316 317 316 314 312 312 314 317 317 315 314 313 315 315 314 316 317 316 316 317 315 316 319 316 315 317 317 318 319 319 319 319 318 319 320 320 320
314 315 314 313 313 314 317 318 316 314 313 313 313 313 314 314 315 315 316 316 316 316 316 316 315 314 313 314 314 313 314 315 313 313 313 313 313 314 316 317 316 315 314 314 315 315 316 317 316 315 316 317 317 315 313 312 312 313 314 316 316 316 315 316 315 314 315 316 315 315 315 314 315 318 318 316 317 316 315 317 317 317 317 318 319 319 318 319
312 313 313 312 312 314 317 319 319 317 314 313 313 313 313 314 314 314 315 315 316 316 315 316 317 317 315 314 315 315 316 316 315 314 313 313 313 312 315 317 315 313 313 312 314 315 314 316 316 315 316 317 317 316 315 316 315 312 312 314 315 316 317 316 315 315 315 315 315 314 314 313 313 314 315 314 314 313 313 314 314 315 316 317 318 318 317 318
310 313 314 312 311 313 315 316 317 317 316 314 313 313 313 314 314 314 314 315 315 315 315 317 317 315 314 315 315 315 315 315 315 314 313 314 314 313 315 317 315 313 311 312 315 313 312 316 316 315 315 315 316 316 315 315 315 313 314 314 314 315 315 315 315 316 315 315 315 314 314 314 313 312 312 312 312 312 312 312 313 313 316 317 317 317 316 316
309 312 314 314 313 313 314 314 315 316 317 316 315 314 314 314 314 314 314 315 315 315 316 316 315 313 314 314 314 314 314 314 314 313 313 314 314 313 313 313 313 312 310 312 314 312 312 315 315 315 315 314 315 315 314 314 313 313 314 314 314 314 315 315 315 315 314 315 315 314 314 315 314 312 312 312 312 312 312 312 312 312 314 315 315 316 316 315
306 309 312 313 313 313 314 314 314 315 316 316 316 315 315 315 314 314 315 315 315 316 316 316 315 314 314 314 314 315 315 315 314 314 313 313 313 312 312 311 312 312 311 313 313 313 313 313 314 315 315 314 314 313 312 313 313 313 314 314 314 314 314 315 314 313 314 315 315 314 314 315 314 312 312 312 312 312 312 312 312 312 312 313 314 316 317 317
303 306 308 308 309 310 310 310 311 313 314 315 315 315 315 316 316 315 315 315 316 316 316 317 316 315 315 314 315 316 316 316 317 315 314 314 313 313 313 313 314 312 312 312 312 312 314 313 313 314 314 314 314 313 312 313 313 313 314 313 313 313 313 314 314 313 313 314 313 313 313 314 312 312 312 312 312 312 311 311 311 311 311 311 312 313 314 315
302 304 304 303 302 303 305 306 308 310 311 312 313 314 314 315 316 315 315 316 317 316 316 317 316 316 315 315 315 315 315 315 317 317 316 316 315 314 314 315 316 314 311 311 311 311 313 315 314 314 314 314 314 313 313 313 313 313 313 313 313 313 313 313 313 313 314 314 313 313 313 313 312 311 311 311 311 311 311 311 311 310 311 311 311 311 311 312
300 301 301 300 300 301 303 306 308 309 309 310 311 312 312 313 314 315 315 315 316 316 316 316 316 316 316 316 315 315 314 314 315 315 316 316 316 315 315 315 316 314 310 310 311 310 311 314 314 314 315 315 314 314 313 313 313 313 313 313 313 313 313 313 313 313 313 314 314 314 314 313 311 311 311 311 311 311 311 311 310 310 311 310 310 311 311 311
298 299 299 299 300 301 302 304 306 307 308 309 310 311 311 312 312 313 314 314 314 316 315 315 315 316 316 316 316 315 314 314 314 314 314 314 314 314 315 315 316 316 311 310 311 310 310 312 313 314 316 315 315 315 314 313 314 314 314 313 313 313 313 313 313 313 312 313 314 314 314 313 312 312 311 311 311 311 311 310 310 311 310 310 310 310 311 311
Wind_Speed
11 12 12 12 12 12 12 12 12 12 12 12 11 11 11 11 11 12 12 11 11 11 11 11 9 8 7 6 7 9 11 10 10 9 9 10 10 9 10 10 10 9 6 4 2 5 5 8 10 10 7 4 3 3 4 3 2 1 2 3 4 5 5 1 1 2 1 1 2 4 4 4 3 3 2 2 3 4 3 5 4 5 3 6 10 17 25 26
11 11 12 12 12 12 13 13 13 13 13 13 12 12 11 11 11 11 11 11 11 11 10 11 11 9 8 7 7 8 8 9 12 13 16 17 14 12 12 11 11 9 5 3 4 7 7 5 7 9 5 2 4 3 3 3 2 3 3 3 5 5 3 1 2 3 2 3 1 3 5 4 3 5 4 1 5 6 7 8 6 8 5 8 11 19 24 24
11 11 12 12 12 13 13 13 14 14 14 14 14 13 13 12 12 11 12 12 12 12 11 11 11 10 8 8 7 6 6 8 10 11 16 20 18 16 14 11 10 8 7 5 5 6 7 6 6 6 5 3 4 4 3 3 3 4 3 3 6 3 4 3 2 2 2 3 4 3 3 4 5 3 4 3 6 7 10 9 7 10 10 9 11 17 22 22
12 12 13 13 13 13 13 14 14 14 14 14 14 14 14 14 13 13 13 13 13 13 13 12 12 10 7 7 6 4 4 5 5 4 10 17 18 18 14 11 10 8 7 6 5 6 7 8 8 6 4 4 5 5 3 4 3 3 4 5 6 1 3 4 4 3 3 4 3 6 1 3 6 2 4 4 5 7 10 10 11 13 13 11 11 15 20 19
13 13 14 14 14 14 14 14 14 15 15 15 15 15 15 15 14 14 14 14 14 13 14 13 13 11 7 6 3 2 2 2 2 0 5 11 16 16 14 12 9 7 6 5 5 6 8 9 6 4 3 4 4 4 4 7 4 2 5 7 9 5 3 1 4 4 4 3 1 5 5 4 4 4 6 7 7 8 6 6 9 12 13 13 15 16 17 16
13 13 14 15 15 15 15 15 15 15 16 16 16 15 15 15 15 15 15 15 15 14 14 13 13 12 8 5 2 1 2 2 0 1 2 7 12 14 13 11 9 7 5 5 6 6 6 6 4 3 3 4 6 6 6 7 6 3 6 8 10 9 5 2 3 2 2 1 4 4 4 3 4 6 6 9 13 12 5 1 1 3 5 12 18 16 15 15
13 13 14 15 16 16 16 16 16 16 17 17 16 16 15 15 15 15 15 16 16 16 15 14 13 11 8 3 0 1 4 5 3 2 2 5 11 12 11 9 7 6 5 5 7 6 5 5 5 4 4 5 6 8 4 5 6 4 6 7 9 6 5 3 3 4 3 4 6 1 3 3 7 6 5 11 16 14 10 4 2 3 4 11 16 15 15 17
14 14 15 16 16 17 17 17 18 18 18 18 17 17 17 16 16 15 15 15 16 17 16 15 12 10 6 1 1 3 5 5 4 4 4 7 10 10 10 8 6 6 5 7 8 6 5 6 7 5 5 5 4 4 0 3 5 6 8 8 6 2 4 5 4 6 5 5 5 2 3 7 9 6 8 15 15 12 11 8 6 6 6 10 13 14 14 14
17 17 17 17 18 18 18 18 19 19 19 19 19 18 17 17 17 16 15 15 16 16 16 14 11 8 4 3 2 4 4 4 5 5 4 7 9 10 9 7 6 6 5 8 9 8 5 3 5 2 3 4 5 6 1 2 4 4 6 6 5 5 6 6 6 7 6 5 4 5 9 10 8 5 11 18 16 11 9 9 8 7 7 8 10 13 13 13
18 18 19 19 19 19 19 19 19 20 20 21 21 20 18 17 17 17 16 16 15 16 15 12 10 6 4 3 3 4 3 3 5 4 4 6 7 8 9 8 7 7 7 8 9 8 4 2 2 2 3 4 6 6 3 3 1 1 4 6 7 10 9 8 8 8 7 6 7 8 10 10 6 3 10 14 11 11 11 11 10 8 9 10 9 10 12 13
18 19 20 20 20 20 20 20 20 21 21 21 21 21 20 18 18 17 17 16 15 16 13 10 7 4 4 3 4 4 4 4 4 4 4 6 6 7 9 10 9 9 9 9 10 9 6 3 1 2 0 1 4 5 3 1 2 3 4 7 9 11 11 11 11 10 7 6 8 9 8 9 3 4 14 14 4 6 11 11 12 11 10 10 10 9 9 11
18 19 20 21 22 22 22 22 21 22 22 22 22 21 20 19 18 18 17 16 15 14 11 8 5 5 4 4 6 8 7 6 5 5 6 6 6 7 8 9 9 10 9 7 8 9 7 3 2 3 3 1 4 5 2 1 3 4 2 6 11 11 12 13 12 11 8 5 8 7 4 8 9 11 20 18 6 5 8 9 10 11 10 9 9 9 8 10
17 18 20 21 22 23 24 24 23 24 24 24 23 22 20 19 18 18 17 16 15 12 9 7 5 6 4 3 7 13 13 10 7 6 6 6 5 6 7 8 8 11 11 8 5 6 8 5 4 5 3 2 4 2 1 0 1 4 3 5 9 8 9 12 12 11 9 5 9 8 3 7 11 17 21 17 9 9 8 9 9 9 8 8 8 8 9 11
17 18 19 21 22 23 24 24 24 25 26 26 26 24 21 19 18 17 16 16 14 10 7 5 4 5 3 4 7 12 13 12 9 7 7 6 4 4 5 5 5 7 9 8 6 5 7 6 3 4 2 2 3 3 3 3 2 3 5 5 5 4 6 7 5 11 9 4 9 7 4 8 9 13 19 15 10 12 11 10 9 8 8 8 8 9 10 11
17 18 19 20 21 23 24 24 24 25 26 27 27 26 23 20 19 17 16 15 11 8 5 4 6 4 2 6 7 8 9 9 8 9 8 7 6 4 4 5 3 4 5 5 5 5 5 4 2 2 1 1 1 3 4 4 4 3 3 4 4 4 6 5 2 12 11 3 7 7 3 9 12 11 10 9 10 11 10 9 9 9 10 9 9 10 11 11
17 18 19 20 21 23 24 24 24 25 26 27 27 26 23 20 18 17 16 13 8 5 3 3 8 6 4 4 4 4 6 6 7 10 10 10 9 4 6 6 3 3 3 3 3 4 5 3 1 1 1 1 2 3 3 4 5 4 5 5 6 5 7 5 2 8 9 4 7 10 5 7 8 5 1 5 9 10 9 9 10 11 11 11 10 10 11 10
17 18 19 20 21 23 24 24 25 26 27 27 27 25 21 17 17 16 13 9 6 5 7 3 4 6 3 3 4 4 4 6 8 10 10 12 11 6 7 5 4 5 3 2 3 2 4 3 1 1 2 4 4 4 3 5 6 4 5 6 7 8 8 5 1 5 7 6 7 11 10 11 9 5 2 4 8 9 10 9 9 10 9 10 10 9 11 11
16 17 18 19 21 22 23 24 25 26 27 28 26 23 19 15 14 13 8 5 3 3 5 4 2 3 4 5 5 1 4 6 9 10 10 13 11 8 7 4 3 6 3 2 3 3 3 3 2 1 3 4 4 5 5 7 7 5 6 5 6 7 7 7 4 3 8 7 7 9 10 15 15 11 9 8 8 9 11 10 10 11 10 11 10 10 10 11
16 17 18 19 20 22 23 23 24 25 26 27 24 20 15 10 8 7 6 6 4 3 4 4 6 4 2 4 4 3 5 6 8 8 9 11 10 9 6 4 3 5 3 2 4 6 4 2 3 3 5 7 8 9 10 11 10 9 10 7 7 7 6 11 8 4 10 7 8 11 11 14 15 13 12 12 10 11 12 10 10 11 11 12 12 11 10 11
16 17 18 19 20 22 23 23 24 24 24 24 22 17 9 4 3 3 4 6 7 8 7 5 10 8 4 3 6 5 5 6 6 6 11 12 10 8 5 4 2 3 4 4 4 4 4 4 5 7 11 11 10 12 14 14 13 12 11 9 8 7 8 13 10 4 9 6 8 13 12 14 16 14 12 12 12 12 12 11 10 11 12 13 13 12 12 12
15 16 17 18 19 21 21 22 23 23 21 17 16 11 3 3 3 2 1 6 12 15 14 10 11 11 6 4 9 9 4 4 6 7 13 13 10 8 5 6 4 4 6 6 3 1 1 6 9 14 16 12 9 11 12 12 12 12 9 7 7 7 10 14 8 3 7 5 6 10 10 13 15 14 12 12 13 13 13 13 13 14 15 14 13 13 13 9
15 15 16 17 18 20 20 22 22 20 16 11 9 6 3 4 3 1 2 6 10 15 15 13 12 10 6 5 10 9 3 4 7 6 13 12 9 7 5 7 7 6 6 6 5 2 4 9 13 15 13 10 11 10 8 9 10 9 6 5 7 7 10 11 5 2 3 3 5 8 9 11 14 14 13 14 14 13 13 14 16 16 16 15 14 12 11 7
15 15 16 16 17 19 19 22 20 13 10 9 7 6 5 5 2 1 1 5 8 11 12 13 14 10 9 8 8 10 5 9 9 7 17 15 7 6 5 7 9 7 6 8 9 7 7 9 13 16 12 12 13 10 7 8 8 7 6 5 8 8 8 7 3 3 4 4 5 7 8 9 11 14 15 17 18 15 14 16 17 16 15 16 16 11 8 8
14 14 15 15 17 17 19 21 13 7 10 10 6 5 7 5 1 2 2 5 7 9 11 14 13 10 14 11 10 13 10 10 8 7 20 19 7 4 5 8 9 7 8 12 13 13 13 7 6 9 10 11 12 9 7 6 7 8 7 7 10 11 11 9 5 2 4 6 3 4 8 8 9 14 15 13 13 14 13 14 15 16 15 15 14 12 8 9
13 14 14 15 16 16 19 16 6 8 15 9 3 6 8 4 1 2 2 4 6 4 4 8 6 7 14 10 11 11 5 8 7 4 18 19 9 6 4 6 7 8 11 13 14 14 15 8 5 6 5 7 8 7 7 6 8 8 7 12 15 14 12 12 8 3 3 5 2 1 7 7 7 12 13 7 6 10 10 11 14 15 15 13 12 11 9 8
13 13 13 13 14 16 16 8 5 14 13 3 3 8 8 4 3 3 2 3 7 1 2 4 4 7 11 7 8 7 3 5 2 6 16 15 8 5 3 4 4 9 10 9 9 7 5 4 6 8 7 7 7 6 7 8 7 8 4 8 12 12 10 9 8 4 3 5 2 3 2 7 6 8 10 5 6 9 8 10 13 13 12 12 10 10 8 8
14 13 13 12 13 12 9 5 10 15 6 1 7 10 8 5 5 4 1 5 8 3 4 2 1 3 6 3 5 7 1 3 4 5 8 6 4 3 5 7 5 6 4 1 5 4 3 5 4 7 7 6 7 8 8 9 7 6 2 1 2 3 5 5 4 5 4 4 3 4 3 7 12 8 9 9 8 9 9 10 12 12 12 12 12 11 8 10
16 15 13 11 11 10 6 8 12 9 4 7 12 11 9 5 5 4 1 5 5 4 4 2 0 2 2 3 0 4 2 1 3 0 2 1 2 2 7 12 8 7 5 4 7 3 3 6 7 8 6 5 7 7 6 9 7 4 1 2 3 3 0 1 2 5 3 5 4 5 7 4 13 7 8 10 11 11 13 13 13 14 14 12 13 13 8 10
18 16 14 11 11 11 9 9 9 6 9 11 11 9 7 4 3 1 2 6 2 3 2 2 1 1 3 2 3 2 2 2 1 1 2 0 2 0 4 7 6 7 5 7 11 6 1 4 5 6 7 7 5 0 2 3 5 3 2 4 5 3 1 2 2 2 2 6 7 7 9 5 13 10 6 7 9 11 12 12 13 14 13 11 12 13 9 9
19 18 16 12 10 9 8 9 9 9 10 9 8 7 4 4 1 1 7 6 1 1 2 2 1 4 7 5 2 6 4 1 2 1 1 1 1 0 2 2 2 5 5 5 9 7 2 2 1 2 4 4 3 5 4 2 1 2 2 2 2 1 1 1 2 2 1 10 8 10 14 9 10 8 6 8 9 11 11 9 11 12 11 10 9 10 10 9
21 20 17 15 14 9 4 5 8 5 5 4 4 3 1 2 0 5 9 3 1 1 3 2 3 7 9 8 6 7 7 3 3 4 3 1 2 2 2 1 1 1 3 5 8 6 3 1 1 1 1 4 6 3 1 2 1 2 3 2 1 3 2 3 1 3 2 11 5 12 16 14 11 6 3 7 10 12 12 10 11 12 11 10 9 9 9 9
24 23 21 19 19 14 8 5 5 1 3 1 2 1 1 1 4 9 6 2 1 4 4 3 5 6 8 9 6 6 7 4 5 7 5 4 4 5 6 6 5 2 3 5 5 4 5 7 6 1 2 4 5 2 2 3 0 3 4 4 1 3 2 1 2 2 5 10 5 10 14 11 15 10 2 5 7 11 11 9 11 12 11 10 9 9 8 8
28 27 25 23 22 22 16 11 9 6 2 4 3 1 0 2 8 9 6 2 1 1 2 3 7 8 7 7 5 5 5 3 7 7 5 6 5 6 8 8 6 3 4 4 3 2 3 6 6 4 3 5 8 5 3 2 4 7 6 6 5 3 3 4 4 3 7 9 6 6 10 6 10 8 9 12 11 11 11 10 10 10 11 11 10 9 8 8
32 30 28 26 26 26 22 17 15 11 4 7 4 2 2 7 9 2 4 6 5 2 2 2 6 8 6 5 5 7 5 4 7 8 6 6 4 5 7 9 11 6 1 2 2 3 4 8 7 9 3 8 13 13 11 4 5 9 6 5 6 5 3 4 5 7 6 6 5 2 5 4 4 3 12 17 16 13 10 10 10 8 9 8 6 7 7 8
29 31 31 27 26 27 24 21 18 14 10 8 3 3 7 11 8 2 2 5 4 3 1 2 3 6 6 5 4 6 6 5 6 7 5 6 6 6 6 8 12 9 3 3 3 4 5 10 8 9 3 11 13 11 9 5 1 5 4 3 6 5 5 5 7 8 3 4 5 3 4 6 4 6 10 12 12 12 10 11 10 8 8 6 5 7 7 7
23 27 27 25 27 29 28 26 21 17 13 8 4 6 9 10 5 2 2 1 2 2 1 1 2 4 5 3 3 5 4 3 5 6 4 7 8 8 7 6 12 14 9 6 3 3 5 6 4 5 2 5 5 4 4 3 1 2 4 4 5 2 5 5 7 6 2 5 9 6 7 8 7 11 12 11 11 11 10 11 10 10 10 8 7 7 7 7
16 17 18 23 29 30 31 32 26 21 11 5 7 9 9 9 8 6 4 3 4 5 2 4 4 4 6 4 4 7 3 0 4 5 3 4 6 9 10 6 11 17 16 10 4 4 7 6 2 3 1 1 2 4 3 1 2 5 3 5 1 3 1 2 2 3 3 7 8 8 12 11 9 10 4 7 12 12 11 12 13 14 12 8 8 8 8 9
9 9 12 23 31 29 30 34 29 19 6 3 9 11 8 8 10 9 8 8 9 9 6 6 4 5 5 5 4 7 7 4 5 5 4 4 4 8 11 7 9 17 20 15 7 4 4 5 3 1 0 1 3 3 2 3 2 6 2 2 2 1 1 2 3 2 5 7 7 10 15 13 12 12 6 2 11 13 14 16 15 14 11 8 8 9 8 8
6 4 6 15 23 26 32 33 24 12 4 4 9 9 5 7 8 6 7 9 8 7 7 8 6 5 7 8 6 3 8 8 6 5 5 5 5 6 10 8 8 14 19 17 10 5 2 5 4 1 2 1 2 1 4 3 1 2 2 3 1 3 3 4 4 3 5 7 8 10 13 13 10 8 8 7 11 12 14 13 11 10 10 9 9 9 8 8
4 4 3 3 13 25 33 28 14 6 4 5 7 8 4 5 5 6 10 10 6 5 6 8 8 8 9 10 10 6 6 8 6 5 5 5 5 5 7 7 6 10 15 14 11 6 1 4 5 1 2 1 2 4 8 7 6 4 2 3 3 2 1 1 3 4 5 7 7 7 10 14 6 2 5 8 11 12 11 9 8 8 9 10 9 9 8 8
3 4 2 6 19 30 28 15 6 5 4 3 6 10 8 5 4 5 7 8 7 6 6 7 8 9 9 9 10 8 5 5 4 5 5 5 6 4 3 7 7 6 5 5 6 6 3 4 6 3 2 6 8 7 10 13 10 8 8 9 9 7 4 3 7 7 5 5 6 6 10 15 6 5 1 6 10 11 9 9 9 9 10 10 8 9 8 8
3 4 2 12 28 34 21 6 4 5 4 5 7 7 5 5 6 7 7 6 6 4 3 5 9 11 10 10 11 10 8 6 6 5 4 4 7 4 2 3 4 6 6 4 7 7 4 2 5 7 7 10 12 6 7 10 8 5 6 8 8 8 7 8 9 7 4 4 6 6 11 16 7 6 5 1 7 9 9 10 9 8 10 10 8 9 9 9
3 3 3 16 33 31 12 4 5 5 5 3 4 5 4 4 6 7 8 8 7 5 4 6 9 11 11 10 9 8 7 6 8 10 9 9 7 5 8 9 5 1 2 2 3 2 2 3 4 7 6 6 7 3 1 1 1 3 5 5 6 7 8 9 7 5 5 6 6 8 12 14 7 2 1 4 6 8 8 9 9 9 8 8 8 9 9 9
3 3 2 17 35 27 7 4 6 7 8 5 6 9 8 7 7 9 10 9 8 6 6 9 9 9 9 7 7 7 5 4 6 10 10 10 8 6 10 11 8 5 2 2 2 2 2 2 4 6 6 4 5 5 3 3 2 2 5 5 6 7 8 8 5 4 7 9 11 13 12 11 7 2 6 7 7 7 8 8 9 9 8 7 8 9 9 9
3 3 1 11 26 19 5 5 7 7 9 10 12 13 11 7 7 13 16 13 10 8 6 6 6 5 6 5 6 9 10 8 6 5 4 5 7 8 8 6 5 3 1 2 2 2 2 1 3 6 8 8 7 7 4 1 0 1 3 6 8 10 10 9 6 7 9 11 14 15 12 12 12 10 11 12 11 11 11 10 8 7 7 8 8 8 9 9
3 3 1 4 10 9 4 3 5 6 8 10 9 9 13 12 7 11 15 13 11 12 10 5 1 3 6 8 9 10 12 12 9 6 4 6 7 6 4 1 2 1 2 5 8 4 1 2 3 5 7 7 7 7 8 7 6 6 7 9 9 9 10 9 8 9 10 11 14 14 14 16 18 20 22 23 21 19 17 15 12 9 8 8 8 9 10 9
3 4 3 2 3 5 6 6 6 7 9 10 6 5 14 17 10 8 11 11 11 13 11 7 5 6 8 10 11 12 12 12 11 10 10 10 9 7 6 5 4 6 8 2 4 3 1 2 6 8 11 11 9 12 15 15 15 15 15 16 14 12 11 11 11 13 13 13 14 14 16 19 19 20 25 27 25 21 18 17 16 13 10 9 8 10 11 10
4 3 3 2 1 4 5 6 8 9 11 12 9 8 14 17 13 11 10 10 11 10 7 6 11 15 16 14 12 10 10 10 10 11 12 12 12 10 8 9 11 12 10 5 4 5 2 6 10 12 16 18 16 18 21 20 20 19 18 19 19 19 18 16 18 20 18 16 16 15 19 24 21 19 23 24 24 22 19 17 16 16 14 11 9 10 10 9
4 4 3 4 3 3 5 6 7 9 11 11 9 10 15 18 18 15 10 8 9 10 10 11 13 17 21 20 16 12 10 10 10 10 11 12 13 10 7 8 11 12 12 8 5 5 4 6 12 16 18 19 20 21 24 24 23 21 20 21 22 23 23 23 24 25 23 22 23 24 27 28 23 20 23 24 23 22 20 20 21 21 21 18 12 11 10 8
3 3 3 4 4 5 7 7 5 6 8 9 8 8 12 17 19 16 11 11 11 8 12 18 20 18 20 21 19 17 17 17 18 17 14 13 11 8 7 8 7 6 8 8 5 5 6 7 11 13 12 15 20 22 23 23 22 23 24 22 21 23 26 27 25 22 21 23 26 27 26 23 20 22 25 24 23 22 22 25 27 24 22 20 15 12 11 9
6 5 4 4 4 5 7 6 4 5 5 5 6 6 9 14 16 15 12 14 16 13 13 19 23 19 17 20 21 23 23 23 25 24 21 18 14 10 7 8 9 6 5 7 5 6 8 7 7 7 8 11 16 20 23 23 22 23 23 22 23 25 25 24 22 21 21 22 23 22 18 15 18 21 22 21 23 24 25 27 27 23 21 19 14 11 11 11
7 6 4 3 4 5 6 6 6 7 5 4 6 8 9 11 11 13 12 10 14 17 14 16 18 15 15 20 23 22 21 23 26 26 23 21 20 16 12 10 13 11 7 7 5 5 7 6 5 7 8 9 13 18 20 18 15 14 17 24 30 29 25 22 20 23 24 22 18 16 15 17 19 18 17 21 24 25 24 24 22 19 19 17 12 10 11 15
Wind_Direction
4 4 3 3 5 7 7 7 8 9 11 12 12 10 9 8 5 1 357 356 356 354 352 352 348 337 326 308 284 272 273 279 284 274 247 250 256 252 261 261 268 273 272 285 183 186 203 197 214 208 194 169 192 211 152 168 184 177 205 224 243 245 250 256 314 5 66 355 126 182 190 215 217 158 148 104 236 243 205 218 197 202 177 112 127 135 141 150
354 354 354 354 356 359 359 359 1 1 2 2 3 3 3 2 358 356 352 348 346 347 345 344 345 339 330 322 306 284 276 272 270 262 251 252 253 250 259 261 259 259 256 250 197 213 227 222 211 188 186 200 186 171 149 165 161 201 237 243 243 260 259 218 341 359 29 327 326 172 185 229 227 161 141 171 219 212 223 232 204 211 176 121 136 141 146 154
346 347 345 345 347 350 351 353 353 353 354 354 356 355 356 355 354 351 346 343 339 339 339 337 338 338 331 325 320 296 283 279 270 259 248 243 238 238 245 248 244 242 237 227 220 245 268 293 276 210 195 227 201 169 178 180 163 211 223 253 253 283 312 302 356 341 9 1 315 272 175 198 244 166 124 213 236 218 222 223 200 215 207 167 156 150 153 160
342 341 339 339 340 342 344 346 345 345 345 346 348 348 349 349 349 349 345 341 336 334 333 332 333 334 329 325 320 289 291 291 269 235 229 226 222 224 225 230 230 227 226 226 249 268 276 280 274 248 213 238 225 183 183 179 167 211 189 231 259 262 325 326 36 22 34 46 319 294 277 203 245 210 154 200 245 245 232 221 207 211 212 184 163 162 164 167
338 337 336 335 335 337 340 341 339 338 337 338 340 342 344 344 343 345 344 341 337 334 331 328 327 326 324 324 312 269 300 283 256 220 228 216 211 210 208 215 216 217 221 225 255 260 261 261 254 245 226 253 240 197 209 199 177 254 227 239 260 258 277 332 65 45 52 68 305 280 269 244 232 211 194 200 226 241 225 215 215 210 212 187 168 170 170 174
333 333 332 331 331 333 335 336 335 333 332 332 334 336 337 338 339 339 341 341 338 335 332 326 321 317 316 322 316 235 261 271 219 99 237 210 205 200 196 206 209 213 213 220 254 253 252 253 234 225 234 249 244 234 228 192 168 240 249 245 260 263 264 254 105 93 101 174 232 245 277 277 241 239 217 212 228 238 226 150 170 198 213 176 166 169 173 182
330 330 328 328 327 328 331 331 329 328 328 328 329 331 332 333 334 335 337 338 336 336 334 325 314 307 307 323 30 215 241 273 276 201 189 188 195 195 194 201 204 205 199 217 240 242 242 245 238 234 240 246 252 252 231 149 160 227 260 264 276 280 265 260 125 148 186 222 239 253 0 277 236 242 233 229 234 239 245 248 154 105 91 135 158 172 180 188
328 328 326 326 326 327 328 326 326 325 324 324 325 327 330 330 330 330 332 334 333 334 334 325 312 301 295 219 200 256 240 254 248 208 193 192 193 195 199 202 207 200 195 222 236 258 271 255 255 258 256 260 302 305 86 129 193 222 249 258 270 286 260 252 163 174 205 226 243 268 278 247 238 257 265 251 246 239 237 237 200 161 131 137 163 181 185 192
328 328 328 327 326 327 326 325 325 324 323 322 322 324 327 328 327 327 327 330 330 332 334 325 313 296 262 198 248 276 245 228 219 212 212 208 206 206 205 202 209 202 206 230 239 262 275 268 272 297 315 294 307 310 301 185 222 218 254 276 294 291 274 254 215 197 207 218 210 229 247 247 245 268 270 254 248 247 236 231 214 180 180 176 175 184 188 195
330 329 328 327 326 326 325 324 323 323 322 321 321 322 324 325 324 324 325 327 328 331 331 321 310 287 229 201 241 258 246 232 216 221 231 224 216 210 207 201 199 201 221 232 226 239 251 300 314 60 16 305 288 287 215 198 250 282 293 306 299 286 279 262 247 221 206 215 194 208 241 249 235 208 256 253 237 236 231 230 222 193 200 203 192 189 190 197
330 330 328 327 326 325 324 323 323 322 320 319 319 319 321 322 321 322 324 324 327 329 326 318 303 256 212 211 239 243 239 235 223 220 223 221 209 203 209 209 206 203 221 233 220 229 257 300 4 93 61 311 310 285 203 194 330 327 325 310 282 272 266 247 243 233 212 218 198 202 249 259 221 186 244 249 216 212 213 221 221 206 208 205 206 202 191 203
329 330 329 329 328 326 325 324 325 322 319 318 315 315 318 319 318 319 320 322 325 326 320 313 286 216 210 242 241 238 239 233 230 232 222 219 212 210 219 222 219 209 216 240 224 216 236 251 184 224 247 273 315 292 237 11 334 305 339 300 278 273 266 246 234 219 202 207 180 174 271 259 221 218 245 245 213 201 207 214 217 210 211 200 208 211 202 209
328 329 328 330 329 328 327 328 328 324 320 317 314 314 316 316 315 314 316 317 320 322 312 297 251 206 212 261 238 231 238 239 238 241 228 226 223 217 226 228 226 217 219 241 238 205 215 209 193 232 271 269 274 300 294 297 272 270 253 254 276 286 267 247 230 200 186 186 153 149 264 259 227 219 239 248 208 197 214 218 215 210 212 204 207 214 213 210
327 327 329 330 330 328 329 331 331 326 322 318 314 314 314 314 311 308 310 311 314 314 303 276 221 192 202 259 253 237 236 239 238 236 230 216 198 209 223 218 222 223 223 233 241 219 206 191 196 251 280 225 258 346 315 260 203 255 266 250 253 273 271 265 225 171 170 176 152 157 242 261 258 228 232 241 196 187 210 215 214 212 212 213 212 215 218 212
325 326 328 329 329 330 332 335 333 329 325 320 316 314 314 312 307 304 303 300 301 296 282 232 200 183 271 260 253 247 235 237 234 221 220 196 178 207 202 188 196 198 205 221 225 210 187 170 190 255 260 163 290 311 290 270 234 215 247 262 230 227 263 280 174 165 171 179 170 168 228 252 263 258 239 221 177 178 205 210 211 217 217 218 217 217 221 219
324 325 326 327 328 330 333 336 334 331 327 323 320 317 313 308 303 300 296 289 285 261 215 198 201 200 293 269 226 249 225 222 218 205 210 194 184 196 167 161 172 169 179 204 199 185 172 175 226 256 252 209 201 228 260 278 260 215 197 243 241 236 263 265 197 190 176 132 186 198 229 251 244 252 218 151 168 178 204 213 209 217 220 220 222 218 219 224
321 323 324 325 327 330 333 335 334 332 329 327 326 323 315 306 296 291 287 274 256 211 196 223 206 194 249 247 235 257 193 190 198 195 207 200 188 176 156 159 175 165 155 169 164 170 183 188 158 101 227 227 216 211 239 258 257 239 209 234 242 237 256 256 266 239 191 149 197 211 234 255 248 241 215 165 179 189 210 220 221 226 226 227 229 220 217 220
318 320 321 324 327 329 333 336 334 331 330 329 330 328 318 300 283 277 263 225 196 174 218 262 248 210 235 224 225 187 133 169 186 190 203 199 190 181 180 193 173 159 154 183 188 175 183 191 175 217 248 225 212 201 207 228 236 247 242 254 260 245 247 254 278 212 186 190 215 212 230 250 256 259 259 243 214 211 223 227 236 245 243 242 240 232 223 217
315 317 319 323 326 328 334 337 334 333 332 329 332 333 317 293 272 251 200 170 152 168 231 215 186 210 233 189 181 118 115 152 171 190 193 187 186 182 199 225 175 175 186 190 191 179 172 190 191 224 245 224 209 206 215 231 240 258 266 268 268 270 263 263 277 185 179 199 220 219 231 246 253 252 253 257 243 234 238 233 235 243 246 247 245 241 231 221
312 314 317 321 323 327 336 339 335 336 335 333 341 341 320 297 288 249 183 193 215 236 263 222 190 218 244 139 134 135 141 161 180 193 180 176 168 159 197 222 177 205 223 199 182 176 170 188 202 221 235 230 216 216 225 236 246 256 265 268 266 273 272 268 277 211 184 200 218 222 233 245 254 253 248 257 257 253 252 247 243 241 244 247 246 245 236 230
309 311 314 319 321 327 336 340 337 337 335 339 346 338 342 12 309 310 331 244 235 237 257 251 214 226 238 141 148 159 143 195 213 182 174 176 159 149 185 191 178 212 219 216 209 81 185 207 218 227 237 243 237 236 238 241 248 253 256 267 271 266 267 272 277 204 186 203 229 235 244 250 256 260 257 255 254 252 252 253 253 249 250 254 252 248 240 229
305 306 312 315 318 326 336 340 338 337 339 349 345 320 7 16 301 282 316 270 248 233 244 252 238 241 239 177 173 165 118 236 229 176 168 177 172 178 186 172 195 214 190 200 226 237 224 228 232 236 246 257 255 255 257 261 261 263 270 275 274 269 275 280 270 183 182 195 238 250 255 258 262 265 261 255 250 246 243 246 251 251 254 258 255 251 240 212
299 303 309 311 316 326 337 340 339 347 354 351 336 321 341 342 346 69 246 270 272 243 236 238 233 236 231 226 194 177 205 231 235 201 173 174 183 200 199 186 208 223 186 191 212 223 229 229 233 240 249 252 254 250 243 268 267 249 252 261 266 261 266 278 248 193 208 213 246 270 269 262 267 270 261 253 251 248 245 245 250 252 252 255 255 252 230 196
294 299 303 308 313 322 335 338 346 17 353 335 317 315 323 304 285 39 277 265 264 230 220 223 223 223 222 226 193 190 224 224 226 209 175 172 166 176 213 209 211 226 215 212 216 229 241 229 207 230 237 236 245 245 227 249 261 239 220 229 253 253 247 256 249 200 221 235 251 302 290 264 243 252 258 254 246 244 242 238 247 253 251 253 256 252 226 192
288 293 296 304 308 320 333 336 1 0 337 331 309 313 318 289 233 3 332 269 257 233 228 219 210 221 215 205 178 179 239 227 220 184 170 175 166 155 207 209 212 228 222 226 230 239 247 227 175 201 219 214 226 238 212 210 258 260 212 213 239 251 253 259 273 321 305 268 216 154 284 269 209 225 251 255 219 232 234 225 236 248 252 252 252 249 229 195
280 284 291 298 301 319 333 333 341 335 327 327 329 319 312 287 268 319 358 273 262 221 100 187 175 202 196 174 158 137 356 257 218 122 162 182 183 167 214 190 207 236 219 227 241 244 243 183 174 202 216 215 221 246 217 198 254 272 226 216 238 252 260 262 272 285 258 265 239 140 275 285 253 230 245 241 201 224 229 221 230 236 246 249 246 244 220 185
272 274 281 288 295 315 333 321 324 331 324 292 327 319 307 291 277 291 322 283 269 157 122 208 197 178 168 148 145 132 257 261 75 104 161 188 192 171 228 203 197 229 199 197 256 235 138 135 164 200 212 217 222 245 222 194 233 266 262 256 239 246 259 257 255 240 234 288 276 162 144 280 277 248 218 220 213 228 233 229 236 235 237 240 245 250 214 174
267 266 270 276 284 294 296 297 313 327 300 301 315 312 308 298 282 299 265 269 270 118 122 228 1 72 82 358 331 142 260 268 106 77 26 23 198 163 227 225 222 218 171 169 236 265 113 174 201 195 193 214 221 238 213 183 209 250 37 60 86 92 284 93 226 245 281 315 267 185 152 242 276 255 185 205 212 225 235 232 237 238 233 227 233 245 217 175
264 262 262 263 272 277 276 283 290 287 285 296 307 311 313 297 289 347 242 256 267 101 122 148 112 85 99 29 306 247 319 2 126 288 21 238 224 166 234 240 257 251 220 203 232 265 117 190 215 183 182 217 215 59 28 175 209 221 115 76 75 79 51 84 218 252 339 285 244 188 163 205 274 267 184 194 210 217 230 232 234 238 236 223 218 229 211 178
265 262 258 251 257 268 272 266 258 273 292 296 304 317 321 292 293 212 239 249 312 69 98 98 130 137 133 126 224 233 232 287 71 128 195 199 185 1 281 277 297 272 270 256 256 260 174 122 307 198 190 197 130 76 30 36 150 171 124 70 48 291 26 73 232 104 24 269 242 187 184 191 268 274 165 182 203 200 211 222 230 236 239 230 212 213 204 183
265 262 255 238 233 238 257 249 234 269 310 303 317 338 305 284 169 228 239 243 341 209 128 146 162 135 151 175 195 201 204 211 139 157 194 170 154 188 244 236 113 330 295 280 271 259 216 172 215 274 210 124 105 88 18 32 68 113 118 106 334 297 18 34 295 101 208 266 237 178 187 192 233 262 135 192 200 191 203 208 213 223 231 231 215 205 199 183
263 260 251 237 229 223 225 226 200 255 324 357 29 25 217 253 231 235 236 71 20 206 152 159 169 159 183 203 210 175 174 197 171 177 196 167 177 197 202 202 159 140 259 242 247 251 245 230 198 217 316 157 140 115 22 4 341 151 141 135 129 284 309 311 250 151 220 258 244 177 181 199 237 248 223 236 212 197 212 211 206 208 213 224 217 204 193 173
264 259 247 237 229 220 220 227 225 247 277 102 88 57 86 245 237 230 213 190 246 187 100 144 173 184 184 196 220 167 169 209 165 179 203 170 197 220 212 219 199 209 240 209 221 227 267 261 182 160 298 184 163 175 216 256 190 179 165 150 165 208 247 248 242 240 239 258 272 188 175 212 265 249 208 221 222 204 206 216 216 198 196 214 213 196 179 166
269 259 245 237 232 223 219 222 228 229 164 109 99 98 153 234 244 218 172 212 241 255 7 67 168 186 191 202 198 158 181 228 159 172 196 165 196 229 214 222 220 230 239 184 254 184 242 284 182 164 212 177 180 205 210 171 165 196 179 159 194 197 206 233 232 244 259 280 288 187 166 217 276 214 193 206 220 211 195 208 215 201 200 205 187 170 164 168
272 261 248 236 227 223 217 216 223 209 157 122 113 166 195 231 246 264 239 244 254 240 289 17 160 186 221 235 203 174 201 227 166 166 195 184 199 215 202 203 206 209 168 187 252 170 229 272 192 162 162 165 182 220 204 129 124 218 150 154 232 206 193 243 257 252 285 324 276 221 211 240 258 263 228 213 221 217 205 208 206 211 217 186 155 168 170 176
270 260 247 228 221 221 214 212 212 196 170 141 148 200 219 236 237 235 285 348 301 286 356 289 205 191 231 234 199 210 228 253 182 168 207 216 223 224 205 184 191 197 189 187 221 185 229 277 172 140 17 153 175 251 194 153 213 189 131 193 234 160 166 229 275 283 307 285 272 258 252 271 300 282 247 213 215 214 208 212 204 212 217 192 182 192 185 188
274 256 240 227 226 221 212 211 202 186 182 159 170 204 225 236 238 248 292 347 312 311 317 242 215 186 224 235 210 201 186 274 190 175 197 208 226 223 210 206 185 190 201 202 218 229 228 263 200 148 324 297 302 317 300 295 135 134 172 221 244 29 91 175 271 306 274 256 272 277 270 278 287 281 258 180 206 210 203 210 210 213 214 200 202 207 199 195
292 252 242 239 233 220 209 206 191 171 170 179 200 221 226 229 231 236 264 288 290 290 278 260 231 184 219 249 231 181 170 190 180 177 214 210 221 201 191 211 190 187 205 209 223 267 222 244 267 128 332 342 4 337 301 310 121 137 202 248 101 123 216 164 177 227 248 251 270 277 278 276 254 261 300 217 203 203 203 209 210 210 208 204 212 219 212 193
297 250 259 246 233 221 207 196 178 155 158 187 212 229 232 251 252 242 266 286 296 283 263 268 267 246 259 272 271 195 175 194 179 176 209 206 226 195 171 194 199 193 202 199 209 248 197 221 250 330 334 342 18 252 193 237 268 105 349 337 115 171 181 180 188 195 221 240 263 275 280 277 251 246 263 224 190 195 205 209 211 209 208 208 210 216 211 192
278 243 276 218 208 206 195 181 161 150 189 191 215 230 243 282 274 251 258 268 282 281 264 272 275 270 275 276 281 275 209 209 203 206 215 197 227 228 177 182 190 198 205 199 205 220 169 226 233 301 341 253 221 198 179 194 205 183 233 251 217 195 145 215 240 220 212 226 243 255 267 270 264 168 216 197 180 195 199 197 211 214 217 219 214 214 210 196
234 249 257 155 178 180 170 160 155 176 195 210 223 234 245 263 266 253 256 255 256 268 279 278 272 276 285 280 283 291 270 244 228 223 227 215 237 260 187 186 185 175 183 193 209 204 176 215 216 203 237 239 243 217 194 207 208 193 204 212 212 203 182 238 247 230 218 226 233 236 257 264 267 66 74 182 177 193 188 186 208 215 221 228 222 220 213 201
241 254 162 162 173 165 153 162 207 185 202 214 216 231 232 232 246 248 246 247 247 254 286 279 263 262 270 269 271 281 284 287 279 261 258 248 250 274 310 246 205 155 147 185 217 206 160 158 218 225 231 249 262 244 199 219 227 229 227 217 217 204 190 220 236 235 238 229 234 246 255 259 267 47 20 236 174 179 180 184 201 212 220 223 217 218 217 213
227 235 147 169 173 164 157 212 198 202 230 225 240 243 215 217 239 239 234 231 231 230 232 246 248 245 248 252 259 272 279 280 268 265 282 295 287 321 356 347 339 229 198 271 275 232 112 112 215 244 260 278 286 299 23 0 323 264 259 231 219 216 215 229 231 242 247 220 225 246 249 259 273 71 184 225 166 166 183 184 194 212 217 215 217 220 219 220
246 255 168 180 180 174 180 224 197 222 229 229 248 236 229 239 235 235 236 220 206 212 226 232 232 231 239 245 248 253 252 250 253 256 272 287 289 327 355 356 355 343 326 352 331 284 279 208 204 242 266 277 277 269 288 355 35 260 257 244 238 239 244 254 258 261 253 234 235 248 252 262 276 201 196 211 187 192 214 209 207 219 219 213 221 225 223 222
276 254 236 190 191 191 210 218 216 232 220 224 239 235 239 247 225 231 239 233 220 214 223 236 227 217 230 241 248 244 232 224 237 253 255 263 273 293 316 337 5 18 70 57 13 324 313 285 207 225 240 242 246 250 257 292 18 264 260 248 246 241 238 249 256 246 247 241 238 247 258 265 273 275 259 249 245 246 252 249 240 236 229 222 223 226 226 222
271 244 231 190 204 218 239 218 223 229 216 224 237 231 234 241 238 233 237 242 239 229 230 243 209 210 225 227 242 249 238 226 221 228 230 229 245 255 249 277 19 293 260 30 37 37 19 305 264 251 250 248 250 269 292 296 278 274 268 253 250 249 244 247 249 244 251 255 247 248 258 265 269 273 271 267 266 267 270 270 270 264 246 231 225 228 229 225
266 259 235 203 217 228 230 226 217 212 209 214 210 201 225 234 238 226 220 227 230 227 235 237 202 207 215 215 230 243 240 232 221 222 235 239 242 244 240 255 277 265 265 317 75 95 103 245 256 266 266 261 260 267 274 277 269 265 264 262 263 264 257 252 252 250 253 258 255 252 258 263 261 260 267 271 273 273 273 272 274 272 255 231 220 228 233 234
267 266 264 325 314 222 228 235 233 230 218 211 207 214 229 233 228 218 216 224 223 213 220 232 214 217 225 224 229 234 232 232 224 220 231 240 243 249 254 253 249 246 248 238 166 148 174 230 234 243 250 248 248 251 252 255 256 252 251 253 256 256 253 250 250 247 244 250 259 259 257 259 258 257 263 269 273 277 278 275 274 273 267 251 226 226 233 227
286 275 297 347 336 277 300 301 279 263 240 226 222 222 231 236 231 225 218 224 229 210 212 236 227 217 225 228 230 235 229 228 231 222 221 228 230 236 248 248 245 237 229 227 198 158 174 228 225 231 242 241 237 239 239 241 246 248 247 244 246 251 251 248 248 246 243 247 253 254 253 255 259 262 262 266 270 276 280 279 275 271 270 266 249 244 250 228
288 298 319 339 323 302 305 298 291 286 261 250 247 234 238 244 240 237 223 218 231 211 205 231 235 224 224 226 227 233 228 226 237 237 231 231 224 216 227 235 241 236 211 210 208 184 195 210 207 219 242 239 234 236 236 235 239 244 248 246 244 248 249 247 247 247 245 245 246 248 252 257 261 261 261 265 269 271 272 272 272 270 268 267 261 260 265 250
283 309 322 312 301 297 293 282 273 278 265 247 248 251 254 252 250 255 247 232 238 235 217 228 235 231 229 228 228 234 230 227 235 239 238 242 234 212 211 212 207 208 196 192 188 185 201 213 203 213 240 236 230 235 236 235 236 239 245 249 245 242 241 240 241 241 241 244 247 248 249 252 252 254 259 263 263 263 264 264 267 269 268 269 268 267 268 265
285 298 297 285 285 272 274 287 280 273 268 248 253 261 261 267 275 274 270 253 244 248 251 250 249 246 240 236 236 241 242 239 241 241 239 243 241 231 227 213 199 195 186 187 193 181 191 210 212 216 240 243 231 234 236 235 236 233 231 234 236 237 239 242 245 245 243 242 244 246 244 244 246 249 255 258 258 258 257 257 262 269 274 274 269 260 259 263